CST,Max TemperatureF,Mean TemperatureF,Min TemperatureF,Max Dew PointF,MeanDew PointF,Min DewpointF,Max Humidity, Mean Humidity, Min Humidity, Max Sea Level PressureIn, Mean Sea Level PressureIn, Min Sea Level PressureIn, Max VisibilityMiles, Mean VisibilityMiles, Min VisibilityMiles, Max Wind SpeedMPH, Mean Wind SpeedMPH, Max Gust SpeedMPH,PrecipitationIn, CloudCover, Events, WindDirDegrees
2011-12-1,37,29,17,36,27,14,100,84,38,30.43,30.27,30.09,10,8,1,15,5,,0.04,7,Snow,326
2011-12-2,35,22,10,32,17,10,100,87,41,30.45,30.38,30.22,10,7,1,13,3,18,0.00,1,,174
2011-12-3,39,36,32,39,35,32,100,100,93,30.21,30.08,29.82,10,5,1,10,6,,0.58,8,Rain,149
2011-12-4,33,30,27,34,31,27,100,100,100,30.30,30.05,29.81,10,8,4,13,9,,0.04,8,Rain-Snow,299
2011-12-5,30,27,24,30,27,25,100,100,93,30.43,30.35,30.30,10,8,2,10,8,,0.01,8,Rain-Snow,301
2011-12-6,28,24,21,25,22,16,100,90,69,30.41,30.26,30.12,10,10,10,12,3,,0.00,7,Snow,284
2011-12-7,23,18,14,19,16,10,100,82,63,30.12,30.05,29.98,10,10,10,15,10,,0.00,5,,263
2011-12-8,30,22,15,22,14,3,93,69,46,30.21,30.16,30.09,10,10,10,20,8,28,0.00,4,,267
2011-12-9,19,12,5,7,3,0,85,71,49,30.45,30.33,30.21,10,10,10,14,8,18,0.00,0,,274
2011-12-10,28,15,2,24,9,-1,95,71,40,30.45,30.37,30.26,10,10,10,15,4,20,0.00,1,,205
2011-12-11,46,36,25,36,29,24,100,83,46,30.26,30.23,30.17,10,10,8,12,8,,0.00,3,,196
2011-12-12,41,38,35,39,36,32,100,95,81,30.35,30.27,30.24,10,9,5,10,5,,0.01,8,Rain,176
2011-12-13,41,36,32,36,34,32,100,95,81,30.45,30.31,30.15,10,10,10,7,2,,0.00,8,Rain,129
2011-12-14,42,38,33,43,37,34,100,100,99,30.17,29.93,29.55,9,4,0,10,7,,0.05,8,Fog-Rain-Thunderstorm,117
2011-12-15,37,30,21,37,25,16,100,82,64,30.29,29.98,29.71,10,9,6,25,17,36,0.00,6,Snow,292
2011-12-16,26,19,12,21,18,12,100,88,64,30.42,30.38,30.36,10,10,10,9,4,,0.00,6,Snow,297
2011-12-17,28,19,10,28,21,9,100,98,92,30.37,30.27,30.14,10,7,2,12,2,,0.00,7,Snow,205
2011-12-18,44,26,9,38,27,10,100,83,61,30.17,29.96,29.74,10,10,7,17,5,28,0.00,2,,191
2011-12-19,40,34,28,38,30,23,100,86,65,30.26,30.04,29.74,10,10,10,14,8,21,0.00,5,,317
2011-12-20,32,26,19,28,25,19,100,94,75,30.26,30.04,29.79,10,10,10,7,2,,0.00,6,,153
2011-12-21,41,34,26,36,29,26,100,93,57,29.96,29.78,29.69,10,9,5,8,2,,0.00,7,,258
2011-12-22,32,21,10,30,25,9,100,92,64,30.36,30.13,29.96,10,7,2,14,7,,0.00,7,Snow,322
2011-12-23,28,17,6,25,18,5,99,88,72,30.36,30.20,30.09,10,10,5,14,6,21,0.00,5,Snow,206
2011-12-24,39,24,10,28,17,10,100,89,58,30.24,30.19,30.01,10,6,1,13,2,17,0.01,0,,205
2011-12-25,40,30,19,28,25,19,100,75,60,30.30,30.15,29.96,10,10,10,21,12,33,0.00,2,,278
2011-12-26,46,32,18,36,26,18,99,71,34,30.25,29.95,29.69,10,10,10,16,8,26,0.00,2,Rain,210
2011-12-27,37,26,15,33,23,12,99,76,60,30.06,29.82,29.63,10,10,10,22,11,31,0.00,5,,314
2011-12-28,28,18,9,23,16,9,100,83,59,30.07,29.95,29.71,10,10,10,13,5,,0.00,5,,121
2011-12-29,41,32,24,34,29,25,100,91,70,29.72,29.59,29.49,10,10,7,16,6,,0.00,5,,35
2011-12-30,32,24,14,32,27,14,100,97,87,29.89,29.71,29.62,10,9,2,10,5,,0.02,6,Rain-Snow,26
2011-12-31,34,22,11,34,25,12,100,100,93,29.93,29.81,29.63,10,6,0,14,3,21,0.01,5,Fog-Rain,117